Newburgh, NY

3:39 AM EDT on September 18, 2019 (GMT -0400)
Stewart International

Weather History for KSWF - August, 2019

Change the Weather History Date:

Saturday, August 24, 2019

  Actual Average Record
Temperature  
Mean Temperature 64 °F -  
Max Temperature 75 °F 77 °F 89 °F (1998)
Min Temperature 53 °F 58 °F 42 °F (1987)
Degree Days  
Heating Degree Days 1    
Growing Degree Days 14 (Base 50)    
Moisture  
Dew Point 55 °F    
Average Humidity 71    
Maximum Humidity 100    
Minimum Humidity 44    
Precipitation  
Precipitation 0.00 in - - ()
Sea Level Pressure  
Sea Level Pressure 30.19 in    
Wind  
Wind Speed 5 mph (NE)    
Max Wind Speed 12 mph    
Max Gust Speed -    
Visibility 15 miles    
Events      
Averages and records for this station are not official NWS values.
T = Trace of Precipitation, MM = Missing Value Source: NWS Daily Summary

Daily Weather History Graph

Daily Weather History Graph

Search for Another Location

Airport or City:

Astronomy

Aug. 24, 2019 Rise Set
Actual Time 6:14 AM EDT 7:42 PM EDT
Civil Twilight 5:45 AM EDT 8:11 PM EDT
Nautical Twilight 5:10 AM EDT 8:46 PM EDT
Astronomical Twilight 4:32 AM EDT 9:23 PM EDT
Moon 12:04 AM EDT (8/24) 2:57 PM EDT (8/24)
Length of Visible Light 14h 26m
Length of Day
13h 28m
Last Quarter, 39% of the Moon is Illuminated
Aug 24
Last Quarter
Aug 30
New
Sep 5
First Quarter
Sep 14
Full
Sep 21
Last Quarter

Hourly Weather History & Observations

Time (EDT) Temp. Dew Point Humidity Pressure Visibility Wind Dir Wind Speed Gust Speed Precip Events Conditions
12:45 AM 59.0 °F 57.2 °F 94% 30.11 in 10.0 mi Variable 5.8 mph - N/A   Clear
1:45 AM 59.0 °F 57.2 °F 94% 30.11 in 10.0 mi Variable 5.8 mph - N/A   Clear
2:45 AM 57.2 °F 55.4 °F 94% 30.11 in 10.0 mi Calm Calm - N/A   Clear
3:45 AM 57.2 °F 55.4 °F 94% 30.12 in 10.0 mi Calm Calm - N/A   Clear
4:45 AM 57.2 °F 55.4 °F 94% 30.14 in 10.0 mi Calm Calm - N/A   Clear
5:45 AM 55.4 °F 53.6 °F 94% 30.15 in 10.0 mi Calm Calm - N/A   Clear
6:45 AM 53.6 °F 53.6 °F 100% 30.18 in 10.0 mi Calm Calm - N/A   Clear
7:45 AM 59.0 °F 51.8 °F 77% 30.20 in 20.0 mi Calm Calm - N/A   Clear
8:45 AM 59.0 °F 51.8 °F 77% 30.21 in 20.0 mi Calm Calm - N/A   Clear
9:45 AM 68.0 °F 55.4 °F 64% 30.21 in 20.0 mi North 11.5 mph - N/A   Clear
10:45 AM 68.0 °F 53.6 °F 60% 30.21 in 20.0 mi North 9.2 mph - N/A   Clear
11:45 AM 69.8 °F 51.8 °F 53% 30.21 in 20.0 mi NNE 6.9 mph - N/A   Scattered Clouds
12:45 PM 71.6 °F 51.8 °F 50% 30.19 in 20.0 mi NE 11.5 mph - N/A   Scattered Clouds
1:45 PM 73.4 °F 50.0 °F 44% 30.19 in 20.0 mi NE 11.5 mph - N/A   Scattered Clouds
2:45 PM 71.6 °F 53.6 °F 53% 30.19 in 20.0 mi NE 11.5 mph - N/A   Scattered Clouds
3:45 PM 71.6 °F 53.6 °F 53% 30.19 in 20.0 mi ENE 11.5 mph - N/A   Scattered Clouds
4:45 PM 75.2 °F 53.6 °F 47% 30.19 in 20.0 mi ENE 11.5 mph - N/A   Scattered Clouds
5:45 PM 73.4 °F 53.6 °F 50% 30.19 in 20.0 mi ENE 6.9 mph - N/A   Scattered Clouds
6:45 PM 71.6 °F 55.4 °F 57% 30.20 in 20.0 mi North 6.9 mph - N/A   Scattered Clouds
7:45 PM 68.0 °F 55.4 °F 64% 30.22 in 10.0 mi Variable 5.8 mph - N/A   Scattered Clouds
8:45 PM 66.2 °F 55.4 °F 68% 30.24 in 10.0 mi Variable 5.8 mph - N/A   Mostly Cloudy
9:45 PM 66.2 °F 57.2 °F 73% 30.26 in 10.0 mi Calm Calm - N/A   Mostly Cloudy
10:45 PM 64.4 °F 57.2 °F 77% 30.27 in 8.0 mi Variable 4.6 mph - N/A   Mostly Cloudy
11:45 PM 64.4 °F 59.0 °F 83% 30.27 in 8.0 mi Variable 4.6 mph - N/A   Mostly Cloudy